Starlink 3528

operational
NORAD ID: 51714 Int'l Des: 2022-016 Owner: SPXS Country: US Constellation: starlink
LEOCIRCULAR

Über Starlink 3528

Beschreibung wird geladen...

Live-Position

3D-Globus wird geladen...

Nächste Überflüge

Höhenverlauf

Altitude vs Time

uPlot chart will show altitude changes over time

Zweizeiliger Elementsatz

1 51714U 22016A 25350.28166880 .00000110 00000-0 24996-4 0 9999
2 51714 53.2187 343.5315 0001429 80.0612 280.0542 15.08837884210830
Epoch: 16. Dez. 2025 • Age: 15 hours

Aktueller Status

Höhe 544.9 km
Geschwindigkeit 7.59 km/s
Subsatellitenpunkt -17.04°S, 118.72°E
Startdatum 21. Feb. 2022
Alter 3.8 years
Typ internet

Technische Details

Klassifizierung Payload
Masse 297.00 kg
Trockenmasse 275.00 kg
Gesamtmasse 297.00 kg
Länge 0.20 m
Durchmesser 2.80 m
Spannweite 9.00 m
Form Box + pan
Hersteller SPXS
Bus-Typ Starlink
Phasenstatus In Orbit
Besitzer/Staat SPXS/US

Große Konstellationen

Loading constellations...